SABESAZS

Guest
Details From SABE - Aeroparque Jorge Newbery
To SAZS - San Carlos De Bariloche
Flight Number -
Tags Generated
Created
Modified
Stats Distance 722 nm / 1,337 km
Max Altitude 0 ft / 0 m
Waypoints 3
Social Downloads 4
Likes 0
Share VATSIM

Download

Looking for another format? Having issues loading an existing format? Contact us
Advertisement - Login to hide

Notes

Generated

Route

SABE R1349 SAZS

ID Type Via Altitude Latitude Longitude Leg Dist Tot Dist Heading (true) Name
O SABE APT - 0 ft / 0 m -34.55416˚ -58.42526˚ - 0 nm - -
R1349 FIX - 0 ft / 0 m -41.15557˚ -71.14482˚ 720 nm 720 nm 233° / 241° -
O SAZS APT - 0 ft / 0 m -41.14677˚ -71.17026˚ 1 nm 721 nm 295° / 295° -

Altitude Profile

Weather

Temperature
Clouds and Precipitation
Forecast for 2017-03-25 12:00 UTC. Updated 21 minutes ago
Winds

SABE

Details ICAO SABE (AEP)
Name Aeroparque Jorge Newbery
Region Argentina
Timezone Unknown (UTC+0.0)
Stats Elevation 17 ft / 5 m (AMSL)
Location -34.559414° -58.415749°
Runways 1
Magnetic Variation 8.861° W

METAR

SABE 250700Z 06004KT CAVOK 23/20 Q1014

Decode

TAF

TAF SABE 250500Z 2506/2606 11005KT 4000 BR SCT010 TX27/2518Z TN21/2509Z BECMG 2514/2517 07010KT 7000 SCT020 FEW035TCU BECMG 2519/2522 11020KT SCT015 BECMG 2603/2605 09015KT

Decode

Departure Runways

ID Width Length Bearing (true) Bearing (mag) Surface Threshold Offset Overrun Length
13 131 ft / 40 m 6,882 ft / 2,098 m 123.87° 132.73° Concrete 0 ft / 0 m 791 ft / 241 m
31 131 ft / 40 m 6,882 ft / 2,098 m 303.86° 312.72° Concrete 991 ft / 302 m 0 ft / 0 m

SAZS

Details ICAO SAZS (BRC)
Name SAN CARLOS DE BARILOCHE
Region Argentina
Timezone America/Argentina/Salta (UTC-3.0)
Stats Elevation 2,776 ft / 846 m (AMSL)
Location -41.151172° -71.157541°
Runways 1
Magnetic Variation 6.746° E

METAR

SAZS 250700Z 32004KT 9999 FEW035 06/01 Q1014

Decode

TAF

TAF SAZS 250500Z 2506/2606 27005KT CAVOK TX17/2518Z TN06/2509Z PROB30 TEMPO 2508/2511 4000 BR BECMG 2512/2514 29020KT 9999 SCT020 BKN100

Decode

Destination Runways

ID Width Length Bearing (true) Bearing (mag) Surface Threshold Offset Overrun Length
11 157 ft / 48 m 7,693 ft / 2,345 m 114.70° 107.95° Asphalt 0 ft / 0 m 0 ft / 0 m
29 157 ft / 48 m 7,693 ft / 2,345 m 294.68° 287.93° Asphalt 0 ft / 0 m 0 ft / 0 m

Approach Navaids

Runway Type Ident Frequency Range Bearing (true) Bearing (mag) Slope Elevation
29 Localiser BR 109.50 MHz 18 nm / 33 km 294.79° 288.05° - 2,776 ft / 846 m (AMSL)
29 Glidescope BR 109.50 MHz 10 nm / 19 km 294.69° 287.94° 3.00° 2,776 ft / 846 m (AMSL)
29 DME BR 109.50 MHz 18 nm / 33 km - - - 2,776 ft / 846 m (AMSL)

Popular Alternatives